TimeEST,TemperatureF,Dew PointF,Humidity,Sea Level PressureIn,VisibilityMPH,Wind Direction,Wind SpeedMPH,Gust SpeedMPH,PrecipitationIn,Events,Conditions,WindDirDegrees,DateUTC
12:56 AM,41.0,27.0,57,30.03,10.0,Calm,Calm,-,N/A,,Clear,0,2013-12-16 05:56:00
1:56 AM,39.0,27.0,62,30.04,10.0,Calm,Calm,-,N/A,,Clear,0,2013-12-16 06:56:00
2:56 AM,37.0,27.0,67,30.05,10.0,Calm,Calm,-,N/A,,Clear,0,2013-12-16 07:56:00
3:56 AM,36.0,28.0,73,30.05,10.0,Calm,Calm,-,N/A,,Clear,0,2013-12-16 08:56:00
4:56 AM,36.0,27.0,70,30.07,10.0,Calm,Calm,-,N/A,,Clear,0,2013-12-16 09:56:00
5:56 AM,35.1,27.0,72,30.09,10.0,Calm,Calm,-,N/A,,Clear,0,2013-12-16 10:56:00
6:56 AM,35.1,26.1,70,30.10,10.0,Calm,Calm,-,N/A,,Clear,0,2013-12-16 11:56:00
7:56 AM,37.0,28.0,70,30.12,10.0,Calm,Calm,-,N/A,,Clear,0,2013-12-16 12:56:00
8:56 AM,39.9,28.9,65,30.16,10.0,Variable,5.8,-,N/A,,Clear,0,2013-12-16 13:56:00
9:56 AM,46.0,28.9,51,30.17,10.0,NW,5.8,-,N/A,,Clear,310,2013-12-16 14:56:00
10:56 AM,48.9,30.0,48,30.17,10.0,Variable,5.8,-,N/A,,Clear,0,2013-12-16 15:56:00
11:56 AM,51.1,28.9,43,30.14,10.0,Variable,3.5,-,N/A,,Clear,0,2013-12-16 16:56:00
12:56 PM,52.0,28.0,40,30.12,10.0,Variable,3.5,-,N/A,,Clear,0,2013-12-16 17:56:00
1:56 PM,54.0,28.9,38,30.11,10.0,Variable,3.5,-,N/A,,Clear,0,2013-12-16 18:56:00
2:56 PM,54.0,30.0,40,30.12,10.0,South,4.6,-,N/A,,Clear,170,2013-12-16 19:56:00
3:56 PM,48.9,32.0,52,30.15,10.0,East,8.1,-,N/A,,Clear,100,2013-12-16 20:56:00
4:56 PM,44.1,32.0,63,30.16,10.0,East,5.8,-,N/A,,Clear,90,2013-12-16 21:56:00
5:56 PM,42.1,30.9,65,30.18,10.0,Calm,Calm,-,N/A,,Clear,0,2013-12-16 22:56:00
6:56 PM,41.0,30.9,67,30.21,10.0,Calm,Calm,-,N/A,,Clear,0,2013-12-16 23:56:00
7:56 PM,37.9,32.0,79,30.21,7.0,Calm,Calm,-,N/A,,Clear,0,2013-12-17 00:56:00
8:56 PM,37.9,30.9,76,30.19,7.0,Calm,Calm,-,N/A,,Clear,0,2013-12-17 01:56:00
9:56 PM,39.0,33.1,79,30.17,8.0,Calm,Calm,-,N/A,,Clear,0,2013-12-17 02:56:00
10:56 PM,39.9,33.1,77,30.18,7.0,Calm,Calm,-,N/A,,Scattered Clouds,0,2013-12-17 03:56:00
11:56 PM,42.1,35.1,76,30.18,8.0,Calm,Calm,-,N/A,,Overcast,0,2013-12-17 04:56:00